EW8292 Weather Reports


time (UTC)temp
F
wind
direction
speed
knots
gust
knots
rain 1hr
in
rain 24hr
in
rain mn
in
humidity
%
barometer
mb
20260505083540 60 32 0.0 0.0 0.00 0.00 0.00 72 1010.6
20260505083111 60 36 0.0 0.0 0.00 0.00 0.00 72 1010.7
20260505083002 60 36 0.0 0.0 0.00 0.00 0.00 72 1010.6
20260505082542 60 56 0.0 0.9 0.00 0.00 0.00 72 1010.6
20260505082004 60 44 0.0 0.0 0.00 0.00 0.00 72 1010.6
20260505081542 60 48 0.0 0.0 0.00 0.00 0.00 72 1010.6
20260505081007 60 20 0.0 0.0 0.00 0.00 0.00 72 1010.6
20260505080529 60 70 0.0 0.0 0.00 0.00 0.00 71 1010.7
20260505080007 61 72 0.0 0.9 0.00 0.00 0.00 71 1010.6
20260505075530 61 39 0.0 0.0 0.00 0.00 0.00 71 1010.6
20260505075006 61 3 0.0 0.9 0.00 0.00 0.00 71 1010.6
20260505074533 61 46 0.0 0.9 0.00 0.00 0.00 70 1010.6
20260505074006 61 54 0.0 0.9 0.00 0.00 0.00 70 1010.6
20260505073530 61 43 0.0 0.0 0.00 0.00 0.00 70 1010.5
20260505073010 61 68 0.0 0.9 0.00 0.00 0.00 70 1010.5
20260505072534 61 63 0.0 0.9 0.00 0.00 0.00 70 1010.3
20260505072051 61 46 0.0 0.0 0.00 0.00 0.00 71 1010.5
20260505071520 61 60 0.0 0.0 0.00 0.00 0.00 71 1010.5
20260505071054 61 38 0.0 0.0 0.00 0.00 0.00 71 1010.4
20260505070524 61 60 0.0 0.0 0.00 0.00 0.00 71 1010.3
20260505070106 61 51 0.0 0.0 0.00 0.00 0.00 71 1010.4
20260505065521 61 32 0.0 0.0 0.00 0.00 0.00 71 1010.3
20260505065058 60 59 0.0 0.0 0.00 0.00 0.00 72 1010.3
20260505064539 60 70 0.0 0.0 0.00 0.00 0.00 72 1010.2
20260505064020 60 23 0.0 0.0 0.00 0.00 0.00 72 1010.3
20260505063553 60 23 0.0 0.0 0.00 0.00 0.00 73 1010.3
20260505063038 60 43 0.0 0.0 0.00 0.00 0.00 73 1010.4
20260505062550 59 69 0.0 0.0 0.00 0.00 0.00 74 1010.3
20260505062032 59 34 0.0 0.0 0.00 0.00 0.00 74 1010.4
20260505061552 60 34 0.0 0.0 0.00 0.00 0.00 73 1010.4
20260505061018 59 35 0.0 0.0 0.00 0.00 0.00 74 1010.4
20260505060557 59 34 0.0 0.0 0.00 0.00 0.00 74 1010.4
20260505060018 59 34 0.0 0.0 0.00 0.00 0.00 73 1010.4
20260505055556 60 34 0.0 0.0 0.00 0.00 0.00 73 1010.4
20260505055018 60 34 0.0 0.0 0.00 0.00 0.00 72 1010.4
20260505054553 60 34 0.0 0.0 0.00 0.00 0.00 72 1010.4
20260505054012 61 35 0.0 0.0 0.00 0.00 0.00 71 1010.4
20260505053534 61 34 0.0 0.0 0.00 0.00 0.00 70 1010.5
20260505053009 62 34 0.0 0.0 0.00 0.00 0.00 69 1010.6
20260505052534 62 34 0.0 0.0 0.00 0.00 0.00 68 1010.6
20260505052056 63 54 0.0 0.0 0.00 0.00 0.00 68 1010.6
20260505051538 63 54 0.0 0.0 0.00 0.00 0.00 67 1010.6
20260505051057 63 55 0.0 0.0 0.00 0.00 0.00 67 1010.5
20260505050537 63 58 0.0 0.0 0.00 0.00 0.00 66 1010.6
20260505050108 63 18 0.0 0.0 0.00 0.00 0.00 66 1010.6
20260505041532 64 35 0.0 0.0 0.00 0.00 0.00 64 1010.5
20260505041010 64 56 0.0 0.0 0.00 0.00 0.00 64 1010.5
20260505040548 64 61 0.0 0.9 0.00 0.00 0.00 64 1010.5
20260505040026 64 44 0.0 0.9 0.00 0.00 0.00 64 1010.5
20260505035543 64 82 0.0 0.0 0.00 0.00 0.00 64 1010.4
20260505035003 64 68 0.0 0.0 0.00 0.00 0.00 64 1010.5
20260505034532 64 50 0.0 0.0 0.00 0.00 0.00 64 1010.5
20260505034012 64 36 0.0 0.0 0.00 0.00 0.00 63 1010.5
20260505033534 64 46 0.0 0.0 0.00 0.00 0.00 63 1010.4
20260505033051 65 358 0.0 0.0 0.00 0.00 0.00 63 1010.4
20260505032536 65 51 0.0 0.0 0.00 0.00 0.00 63 1010.4
20260505032053 65 312 0.0 0.0 0.00 0.00 0.00 62 1010.4
20260505031535 65 20 0.0 0.0 0.00 0.00 0.00 62 1010.4
20260505031055 65 354 0.0 0.0 0.00 0.00 0.00 61 1010.4
20260505030548 66 49 0.0 0.0 0.00 0.00 0.00 61 1010.4
20260505030012 66 47 0.0 0.0 0.00 0.00 0.00 60 1010.4
20260505025528 66 21 0.0 0.0 0.00 0.00 0.00 60 1010.3
20260505025048 66 334 0.0 0.0 0.00 0.00 0.00 60 1010.3
20260505024532 66 59 0.0 0.0 0.00 0.00 0.00 60 1010.4
20260505024050 66 59 0.0 0.0 0.00 0.00 0.00 60 1010.5
20260505023534 66 32 0.0 0.0 0.00 0.00 0.00 60 1010.5
20260505023051 66 36 0.0 0.9 0.00 0.00 0.00 60 1010.4
20260505022517 66 57 0.0 0.0 0.00 0.00 0.00 60 1010.4
20260505022054 66 53 0.0 0.0 0.00 0.00 0.00 60 1010.3
20260505021523 65 338 0.0 0.0 0.00 0.00 0.00 60 1010.3
20260505021053 65 73 0.0 0.0 0.00 0.00 0.00 61 1010.2
20260505020539 65 51 0.0 0.0 0.00 0.00 0.00 61 1010.2
20260505020109 64 63 0.0 0.0 0.00 0.00 0.00 62 1010.3
20260505020008 64 63 0.0 0.0 0.00 0.00 0.00 62 1010.3
20260505015544 64 105 0.0 0.0 0.00 0.00 0.00 62 1010.3
20260505015100 64 35 0.0 0.0 0.00 0.00 0.00 62 1010.3
20260505015004 64 35 0.0 0.0 0.00 0.00 0.00 62 1010.3
20260505014532 64 34 0.0 0.0 0.00 0.00 0.00 62 1010.3
20260505014005 64 35 0.0 0.0 0.00 0.00 0.00 63 1010.2
20260505013531 63 34 0.0 0.0 0.00 0.00 0.00 63 1010.0
20260505013018 63 34 0.0 0.0 0.00 0.00 0.00 63 1009.9
20260505012538 63 35 0.0 0.0 0.00 0.00 0.00 63 1009.9
20260505012055 63 35 0.0 0.0 0.00 0.00 0.00 61 1009.9
20260505011540 64 34 0.0 0.0 0.00 0.00 0.00 60 1010.0
20260505011011 65 35 0.0 0.0 0.00 0.00 0.00 58 1010.0
20260505010535 66 34 0.0 0.0 0.00 0.00 0.00 57 1009.9
20260505010107 67 35 0.0 0.0 0.00 0.00 0.00 55 1009.8
20260505005533 68 34 0.0 0.0 0.00 0.00 0.00 55 1009.8
20260505005021 68 35 0.0 0.0 0.00 0.00 0.00 54 1009.7
20260505004601 68 35 0.0 0.0 0.00 0.00 0.00 53 1009.7
20260505004036 69 56 0.0 0.0 0.00 0.00 0.00 53 1009.7
20260505003513 69 56 0.0 0.0 0.00 0.00 0.00 53 1009.6
20260505003051 69 56 0.0 0.0 0.00 0.00 0.00 52 1009.5
20260505002513 69 58 0.0 0.0 0.00 0.00 0.00 52 1009.5
20260505002047 70 57 0.0 0.0 0.00 0.00 0.00 51 1009.6
20260505001528 70 54 0.0 0.0 0.00 0.00 0.00 51 1009.6
20260505001011 70 68 0.0 0.0 0.00 0.00 0.00 51 1009.7
20260505000541 70 65 0.0 0.0 0.00 0.00 0.00 51 1009.6
20260505000028 70 51 0.0 0.0 0.00 0.00 0.00 50 1009.4
20260504235501 70 58 0.0 0.0 0.00 0.00 0.00 50 1009.4
20260504235041 71 81 0.0 0.0 0.00 0.00 0.00 50 1009.4
20260504234521 71 6 0.0 0.9 0.00 0.00 0.00 50 1009.4
20260504234059 71 12 0.0 0.9 0.00 0.00 0.00 49 1009.3
20260504234003 71 106 0.0 0.9 0.00 0.00 0.00 49 1009.4
20260504233539 71 356 0.0 0.9 0.00 0.00 0.00 49 1009.4
20260504233023 71 30 0.0 0.0 0.00 0.00 0.00 48 1009.4
20260504232514 72 94 0.0 0.9 0.00 0.00 0.00 48 1009.4
20260504232035 72 36 0.0 0.9 0.00 0.00 0.00 47 1009.3
20260504231519 72 22 0.0 3.5 0.00 0.00 0.00 47 1009.3
20260504231059 72 37 0.0 6.1 0.00 0.00 0.00 47 1009.3
20260504231004 72 2 0.0 6.1 0.00 0.00 0.00 46 1009.4
20260504230539 72 60 0.0 6.1 0.00 0.00 0.00 46 1009.4
20260504230047 72 359 0.0 5.2 0.00 0.00 0.00 46 1009.4
20260504225532 73 39 0.0 6.1 0.00 0.00 0.00 46 1009.4
20260504225056 73 323 0.0 8.7 0.00 0.00 0.00 46 1009.4
20260504224541 73 312 0.0 8.7 0.00 0.00 0.00 45 1009.5
20260504224056 73 322 0.0 5.2 0.00 0.00 0.00 45 1009.4
20260504223537 73 15 0.0 5.2 0.00 0.00 0.00 45 1009.3
20260504223055 73 25 0.0 7.8 0.00 0.00 0.00 45 1009.3
20260504222519 73 91 0.0 2.6 0.00 0.00 0.00 45 1009.3
20260504222058 73 60 0.0 5.2 0.00 0.00 0.00 45 1009.2
20260504221532 74 72 0.0 6.1 0.00 0.00 0.00 44 1009.1
20260504221059 74 340 0.0 6.1 0.00 0.00 0.00 44 1009.3
20260504221001 74 347 0.0 2.6 0.00 0.00 0.00 43 1009.3
20260504220526 74 304 0.0 2.6 0.00 0.00 0.00 43 1009.3
20260504220003 74 307 0.0 7.8 0.00 0.00 0.00 44 1009.2
20260504215528 74 79 0.0 3.5 0.00 0.00 0.00 44 1009.2
20260504215047 75 13 0.0 0.0 0.00 0.00 0.00 43 1009.2
20260504214530 75 96 0.0 0.9 0.00 0.00 0.00 44 1009.2
20260504214049 74 305 0.0 7.8 0.00 0.00 0.00 43 1009.3
20260504213515 75 51 0.0 7.8 0.00 0.00 0.00 43 1009.3
20260504213057 75 22 0.0 5.2 0.00 0.00 0.00 43 1009.2
20260504212533 75 302 0.0 4.3 0.00 0.00 0.00 43 1009.2
20260504212056 75 297 0.0 2.6 0.00 0.00 0.00 44 1009.3
20260504211539 75 307 0.0 1.7 0.00 0.00 0.00 43 1009.4
20260504211059 75 55 0.0 0.9 0.00 0.00 0.00 42 1009.4
20260504211001 75 332 0.0 0.9 0.00 0.00 0.00 42 1009.4
20260504210544 75 61 0.0 7.8 0.00 0.00 0.00 44 1009.4
20260504210005 75 55 0.0 7.8 0.00 0.00 0.00 42 1009.4
20260504205545 75 301 0.0 6.1 0.00 0.00 0.00 43 1009.4
20260504205005 76 37 0.0 4.3 0.00 0.00 0.00 42 1009.5
20260504204531 76 320 0.0 4.3 0.00 0.00 0.00 42 1009.4
20260504204005 77 304 0.0 0.9 0.00 0.00 0.00 42 1009.5
20260504203529 76 314 0.0 1.7 0.00 0.00 0.00 42 1009.4
20260504203047 76 300 0.0 1.7 0.00 0.00 0.00 43 1009.6
20260504202532 76 359 0.0 0.9 0.00 0.00 0.00 42 1009.9
20260504202049 76 338 0.0 0.9 0.00 0.00 0.00 42 1009.8
20260504201532 76 21 0.0 5.2 0.00 0.00 0.00 43 1009.9
20260504201051 76 54 0.0 2.6 0.00 0.00 0.00 43 1009.9
20260504200533 76 50 0.0 2.6 0.00 0.00 0.00 44 1010.0
20260504200013 76 310 0.0 1.7 0.00 0.00 0.00 43 1009.9
20260504195544 76 308 0.0 1.7 0.00 0.00 0.00 43 1010.0
20260504195023 76 321 0.0 6.1 0.00 0.00 0.00 43 1010.1
20260504194553 75 44 0.0 6.1 0.00 0.00 0.00 42 1010.2
20260504194011 76 46 0.0 7.0 0.00 0.00 0.00 42 1010.3
20260504193547 76 271 0.0 7.0 0.00 0.00 0.00 43 1010.5
20260504193016 76 55 0.0 0.9 0.00 0.00 0.00 42 1010.6
20260504192547 76 332 0.0 1.7 0.00 0.00 0.00 43 1010.6
20260504192007 75 45 0.0 5.2 0.00 0.00 0.00 42 1010.7
20260504191546 75 58 0.0 5.2 0.00 0.00 0.00 44 1010.8
20260504191009 76 319 0.0 1.7 0.00 0.00 0.00 44 1010.9
20260504190531 76 162 0.0 0.9 0.00 0.00 0.00 43 1011.0
20260504190007 76 337 0.0 2.6 0.00 0.00 0.00 44 1011.0
20260504185548 75 70 0.0 6.1 0.00 0.00 0.00 44 1011.1
20260504185058 75 16 0.0 6.1 0.00 0.00 0.00 43 1011.2
20260504185002 75 20 0.9 6.1 0.00 0.00 0.00 44 1011.2
20260504184553 75 264 0.0 6.1 0.00 0.00 0.00 44 1011.2
20260504184100 75 63 0.0 7.8 0.00 0.00 0.00 44 1011.3
20260504184003 75 303 0.0 7.8 0.00 0.00 0.00 43 1011.3
20260504183527 75 314 0.0 7.8 0.00 0.00 0.00 43 1011.5
20260504183012 74 16 0.0 3.5 0.00 0.00 0.00 44 1011.6
20260504182548 74 319 0.0 3.5 0.00 0.00 0.00 45 1011.6
20260504182007 74 12 0.0 4.3 0.00 0.00 0.00 44 1011.7
20260504181532 74 103 0.0 4.3 0.00 0.00 0.00 44 1011.8
20260504181007 74 82 0.0 3.5 0.00 0.00 0.00 44 1011.8
20260504180528 74 68 0.0 3.5 0.00 0.00 0.00 43 1011.8
20260504180010 74 53 0.0 5.2 0.00 0.00 0.00 43 1011.9
20260504175536 74 27 0.0 5.2 0.00 0.00 0.00 46 1012.0
20260504175019 73 23 0.0 1.7 0.00 0.00 0.00 44 1012.0
20260504174534 72 288 0.0 1.7 0.00 0.00 0.00 44 1012.1
20260504174015 73 95 0.0 6.1 0.00 0.00 0.00 43 1012.2
20260504173538 73 330 0.0 6.1 0.00 0.00 0.00 43 1012.2
20260504173019 73 323 0.0 2.6 0.00 0.00 0.00 43 1012.3
20260504172538 73 46 0.0 5.2 0.00 0.00 0.00 43 1012.3
20260504172017 72 54 0.0 5.2 0.00 0.00 0.00 42 1012.4
20260504171541 72 18 0.0 10.4 0.00 0.00 0.00 44 1012.4
20260504171059 72 15 0.0 10.4 0.00 0.00 0.00 45 1012.5
20260504171007 72 348 0.0 10.4 0.00 0.00 0.00 43 1012.5
20260504170543 72 90 0.0 1.7 0.00 0.00 0.00 45 1012.5
20260504151056 68 79 0.0 0.0 0.00 0.00 0.00 46 1013.9
20260504150524 67 20 0.0 0.0 0.00 0.00 0.00 45 1013.9
20260504141042 64 334 0.0 0.9 0.00 0.00 0.00 53 1014.0
20260504140520 63 57 0.0 0.0 0.00 0.00 0.00 57 1014.1
20260504130512 57 314 0.0 0.9 0.00 0.00 0.00 65 1014.6
20260504110518 47 33 0.0 0.0 0.00 0.00 0.00 80 1015.1
20260504100531 49 65 0.0 0.0 0.00 0.00 0.00 75 1014.9